Date,TemperatureHighF,TemperatureAvgF,TemperatureLowF,DewpointHighF,DewpointAvgF,DewpointLowF,HumidityHigh,HumidityAvg,HumidityLow,PressureMaxIn,PressureMinIn,WindSpeedMaxMPH,WindSpeedAvgMPH,GustSpeedMaxMPH,PrecipitationSumIn
2013-5-1,69,53,34,42,35,23,83,54,23,30.49,30.33,13,0,13,0.00
2013-5-2,76,57,38,44,38,33,94,56,24,30.47,30.30,11,0,12,0.00
2013-5-3,69,57,47,44,37,31,82,50,27,30.46,30.34,7,0,11,0.00
2013-5-4,73,53,39,47,40,36,95,66,27,30.37,30.23,10,0,10,0.00
2013-5-5,66,49,35,42,38,33,95,68,34,30.30,30.22,9,0,14,0.00
2013-5-6,71,55,40,50,44,36,91,70,44,30.28,30.15,6,0,11,0.00
2013-5-7,74,59,42,56,49,40,95,72,45,30.18,30.09,10,0,10,0.00
2013-5-8,64,59,55,62,57,52,96,93,85,30.13,30.00,7,0,12,0.53
2013-5-9,62,57,52,60,55,51,97,94,85,30.02,29.88,4,0,5,1.10
2013-5-10,79,62,47,62,52,46,98,73,38,29.99,29.89,7,0,9,0.00
2013-5-11,64,60,58,61,58,54,97,92,78,29.89,29.68,10,0,10,0.29
2013-5-12,68,59,49,59,44,23,97,65,24,29.89,29.63,13,1,14,0.07
2013-5-13,56,47,38,32,28,21,80,48,28,30.08,29.89,11,1,12,0.00
2013-5-14,59,47,32,33,28,21,86,54,24,30.10,30.01,7,0,7,0.00
2013-5-15,64,50,33,52,42,30,92,76,48,30.08,29.69,10,0,14,0.02
2013-5-16,83,68,48,52,45,34,92,52,20,29.82,29.69,12,1,16,0.01
2013-5-17,72,59,50,49,40,34,77,52,27,30.20,29.82,7,1,11,0.00
2013-5-18,70,55,42,50,44,39,92,70,38,30.31,30.20,7,0,7,0.00
2013-5-19,56,55,52,55,52,48,96,92,85,30.34,30.18,3,0,4,0.16
2013-5-20,81,65,55,65,59,54,98,84,54,30.18,29.95,4,0,7,0.01
2013-5-21,88,80,67,68,66,63,87,64,47,29.89,29.81,10,0,10,0.00
2013-5-22,77,65,56,68,61,54,97,88,69,29.93,29.83,4,0,6,0.29
2013-5-23,72,66,63,67,64,61,97,94,83,29.89,29.76,7,0,11,1.71
2013-5-24,64,55,44,63,54,43,98,96,90,29.90,29.65,7,0,10,0.35
2013-5-25,45,43,41,44,42,38,96,93,76,29.93,29.83,15,2,16,0.62
2013-5-26,62,51,43,41,38,36,86,63,40,30.17,29.87,12,2,20,0.01
2013-5-27,74,57,41,45,38,31,82,53,24,30.22,30.10,6,0,10,0.00
2013-5-28,69,55,43,56,48,41,96,81,39,30.22,30.14,3,0,5,0.19
2013-5-29,79,64,56,68,60,55,98,89,66,30.15,29.99,5,0,6,0.02
2013-5-30,90,82,71,66,64,61,80,56,40,30.07,30.03,5,0,5,0.00
2013-5-31,92,76,63,71,63,53,96,68,27,30.11,29.97,6,0,7,0.00